1st Responders/1st Detectors/Storm Spotters Weather Summary for Boyle County, KY

Forecast Maps


Reg. NEXRAD Animation


National Fire Danger: Day 1 & 2 Map

Current NWS Watch/Warnings

SPC Convective Day 1 Outlook


Day 2 Outlook

(Click images to enlarge|Page will refresh every 5 minutes)
UK Ag. Weather Center Desktop Severe Weather Service[HERE]
Boyle County, KY Hazardous Weather Outlook Webcast
(9 AM to 9 PM Mon-Fri)
[Fast]
[Dial-up]


UKAWC 1st Detectors/1st Responders Precision Weather Forecast For BOYLE County, Kentucky
(based on the NWS County Digital Forecast)

ISSUED AT 19:00 UTC ON SUNDAY OCT 22 2017
DAY SUNDAY
EDT 3HR 4P 5P 6P 7P
MAX/MIN -- -- -- 79°
TEMP 79° 77° 74° 70°
SKY COVER 32% 34% 37% 41%
Clouds
DEW PT 56° 56° 56° 56°
RH 44% 46% 52% 60%
POP 12HR -- -- -- --
RAIN/SNOW (liq.equ) -- -- -- --
SNOWFALL -- -- -- --
WIND SPEED(MPH) 10 9 7 6
WIND Gust(MPH) 23 23 18 10
WIND DIR S S S S
DEW -- -- -- --
HeatIndex 79 77 74 70
Rain Showers -- -- -- --
Fog -- -- -- --
WIND CHILL -- -- -- --
SPRAY COND
DRY COND
LIVESTOCK COLDSTRESS
LIVESTOCK HEATSTRESS 72.78 71.59 69.99 67.54



DAY MONDAY TUESDAY WEDNESDAY THURSDAY FRIDAY SATURDAY
EDT 6HR 8P 9P 10P 11P MIDN 1A 2A 3A 4A 5A 6A 7A 8A 9A 10A 11A NOON 1P 2P 3P 4P 5P 6P 7P 8P 9P 10P 11P MIDN 1A 2A 3A 5A 8A 11A 2P 5P 8P 2A 8A 2P 8P 2A 8A 2P 8P 2A 8A 2P 8P 2A 8A 2P 8P
MAX/MIN -- -- -- -- -- -- -- -- -- -- -- -- 58° -- -- -- -- -- -- -- -- -- -- 65° -- -- -- -- -- -- -- -- -- 45° -- -- 58° -- -- 38° 52° -- -- 36° 61° -- -- 47° 65° -- -- 40° 58° --
TEMP 67° 63° 63° 63° 61° 61° 61° 61° 61° 59° 59° 58° 58° 61° 63° 65° 65° 65° 65° 63° 63° 63° 61° 58° 58° 56° 56° 54° 54° 52° 50° 49° 47° 45° 54° 58° 56° 49° 41° 38° 50° 47° 41° 38° 61° 54° 50° 47° 65° 54° 47° 40° 56° 50°
SKY COVER 45% 46% 48% 48% 57% 75% 85% 87% 91% 93% 93% 93% 97% 97% 98% 99% 99% 99% 99% 98% 96% 95% 94% 90% 89% 84% 75% 70% 67% 62% 59% 58% 55% 62% 33% 54% 55% 60% 46% 53% 52% 48% 21% 11% 7% 8% 9% 21% 43% 58% 67% 64% 63% 55%
Clouds
DEW PT 56° 56° 56° 56° 56° 56° 56° 56° 56° 56° 56° 58° 58° 58° 58° 59° 59° 59° 59° 58° 58° 58° 56° 56° 56° 54° 54° 52° 52° 49° 49° 47° 45° 45° 45° 40° 38° 38° 36° 34° 34° 36° 36° 34° 40° 41° 43° 43° 47° 47° 43° 40° 40° 40°
RH 67% 75% 80% 81% 83% 83% 83% 86% 86% 90% 89% 96% 96% 93% 84% 81% 80% 83% 83% 83% 83% 83% 86% 92% 93% 92% 93% 93% 92% 92% 92% 92% 92% 100% 71% 53% 53% 63% 78% 88% 51% 65% 79% 85% 45% 63% 73% 82% 50% 74% 85% 95% 52% 65%
POP 12HR 7% -- -- -- -- -- -- -- -- -- -- -- 88% -- -- -- -- -- -- -- -- -- -- -- 96% -- -- -- -- -- -- -- -- 50% -- -- -- 27% -- 7% -- 9% -- 3% -- 2% -- 5% -- 32% -- 43% -- 35%
RAIN/SNOW (liq.equ) 0.00in -- -- -- -- -- 0.00in -- -- -- -- -- 0.31in -- -- -- -- -- 0.78in -- -- -- -- -- 0.32in -- -- -- -- -- 0.08in -- -- 0.02in -- 0.00in -- 0.00in -- -- -- -- -- -- -- -- -- -- -- -- -- -- -- --
SNOWFALL 0in -- -- -- -- -- 0in -- -- -- -- -- 0in -- -- -- -- -- 0in -- -- -- -- -- 0in -- -- -- -- -- 0in -- -- 0in -- 0in -- 0in -- -- -- -- -- -- -- -- -- -- -- -- -- -- -- --
WIND SPEED(MPH) 6 6 6 6 7 7 7 7 7 6 6 6 6 6 6 5 6 6 7 7 8 8 8 7 7 7 7 7 7 7 7 7 7 7 9 13 10 7 6 7 10 7 5 5 7 7 7 7 10 7 7 6 7 6
WIND DIR SE SE S S S S S S S SE SE SE SE SE S S S S SW SW SW SW SW W W W W W W W W W W W W W W W W W W SW SW SW SW S S S SW SW SW W W W
HeatIndex 67 63 63 63 61 61 61 61 61 59 59 58 58 61 63 65 65 65 65 63 63 63 61 58 58 56 56 54 54 52 50 49 47 45 54 58 56 49 38 32 50 47 39 35 61 54 50 47 65 54 47 37 56 50
Rain Showers -- -- Slight Chance Slight Chance Chance Chance Chance Chance Likely Likely Likely Definite Definite -- -- -- Definite Definite Definite Definite Definite Definite Definite Definite Chance Chance Chance Chance Chance Chance Chance Chance Chance Chance Chance Slight Chance Slight Chance -- -- -- -- -- -- -- -- -- -- -- Chance Chance Chance Chance Slight Chance --
Fog -- -- -- -- -- -- -- -- -- -- -- -- -- Patchy Patchy Patchy -- -- -- -- -- -- -- -- -- -- -- -- -- -- -- -- -- -- -- -- -- -- -- -- -- -- -- -- -- -- -- -- -- -- -- -- -- --
WIND CHILL -- -- -- -- -- -- -- -- -- -- -- -- -- -- -- -- -- -- -- -- -- -- -- -- -- -- -- -- -- -- -- -- -- 41° -- -- -- -- 37° 33° -- -- 38° 35° -- -- -- -- -- -- -- 36° -- --
SPRAY COND
DRY COND
LIVESTOCK COLDSTRESS
LIVESTOCK HEATSTRESS 65.51 62.42 62.54 62.56 60.79 60.79 60.79 60.83 60.83 58.99 58.99 58.02 58.02 60.92 62.63 64.35 64.32 64.42 64.42 62.61 62.61 62.61 60.83 58.04 58.03 56.12 56.11 54.18 54.21 52.30 50.39 49.43 47.52 45.00 54.77 58.21 56.72 50.99 43.15 39.37 52.37 49.27 43.06 39.72 60.33 54.98 51.31 48.17 63.30 54.69 47.97 40.52 56.74 51.69

Click on individual weather variable above in left-hand column (ie., TEMP, RH, QPF 12HR) to view state forecast maps






NWS 48 Hr. Forecast Maps,

Regional Hourly Observations For BOYLE County, Kentucky
Issued at 300 PM EDT SUN OCT 22 2017
NORTHEAST KENTUCKY
  
CITY           SKY/WX    TMP DP  RH WIND       PRES   REMARKS
LEXINGTON      PTSUNNY   76  52  43 S16G26    30.15F                  
COVINGTON      PTSUNNY   74  57  55 S14       30.11F                  
FRANKFORT      CLOUDY    74  51  44 S14       30.13F                  


Current NOWCAST not available:
Nowcasts are not issued routinely during fair weather. Only when
precipitation or other significant weather is occuring in this county will these
forecasts be issued. Currently, there is no short term forecast in effect.


Fire Weather Forecast For BOYLE County, KY
Provided by the National Weather Service:

Issued at: Sun Oct 22 15:05:01 EDT 2017


                      Today        Tonight      Mon          

CLOUD COVER           MClear       MCldy        Cloudy       
PRECIP TYPE           NONE         showers      showers      
CHANCE PRECIP (%)     0            90           100          
TEMP (24H TREND)      80 (+4)      59 (+5)      66           
RH % (24H TREND)      43 (+10)     100 (+15)    75           
20FTWND-VAL/AM(MPH)   S  6 G19                  Lgt/Var      
20FTWND-RDG/PM(MPH)   S  8 G17     SE  5        SW  6        
PRECIP AMOUNT         0.00         0.38         1.08         
MIXING HGT(FT-AGL/MSL)5524                      2723         
TRANSPORT WND (MPH)   S 21                      SW 10        
VENT RATE (KT-FT)     106264                    26940        
DISPERSION            Excellent                 Poor         
DSI                   SLGT UNSTBL  SLGT UNSTBL  STBL         
LAL                   1            1            1            
HAINES INDEX          4            3            3            
ADI EARLY             53 GEN GOOD  13 GEN POOR  15 GEN POOR  
ADI LATE              83 GOOD      13 GEN POOR  23 FAIR      
MAX LVORI EARLY       5            4            6            
MAX LVORI LATE        1            7            4            

REMARKS...ADI IS ATMOSPHERIC DISPERSION INDEX BY LAVDAS.        
LVORI IS LOW VISIBILITY OCCURRENCE RISK INDEX.

.TUESDAY...Mostly cloudy. A 50 percent chance of rain showers.
Lows in the mid 40s. Highs in the upper 50s. Southwest winds
around 5 mph. 
.WEDNESDAY...Partly cloudy. Lows in the upper 30s. Highs in the
mid 50s. West winds around 5 mph. 
.THURSDAY...Mostly clear. Lows in the upper 30s. Highs in the mid
60s. South winds up to 5 mph. 
.FRIDAY...Mostly clear. A 30 percent chance of rain showers. Lows
in the upper 40s. Highs in the mid 60s. Southwest winds 5 to
10 mph. 
.SATURDAY...Mostly cloudy. A 50 percent chance of rain showers.
Lows in the lower 40s. Highs in the upper 50s. West winds 5 to
10 mph. 

SPC's Fire Weather Web Tool (Excellent!), SPC's Fire Weather Outlooks, NWS Fire Weather WEB, Fire Danger Class Map,
Keetch-Byram Drought Index, ROMAN Web, Haines Index ,
WFAS's 10-hr Dead Fuel Moist., WFAS's 100-hr Dead Fuel Moist., Probablity of Ignition, Visual blackness Map, Palmer Drought Index, HPC's Rainfall Forecast Maps


Hazardous Weather Outlook For BOYLE County, Kentucky
311 AM EDT Sun Oct 22 2017 /211 AM CDT Sun Oct 22 2017/

 DAY ONE  Today and Tonight.

Widespread showers are expected tonight with the potential for
locally heavy rain.

 DAYS TWO THROUGH SEVEN  Monday through Saturday.

Locally heavy rain will be possible Monday, especially in the morning
hours. Total rainfall amounts from Sunday night through Monday
afternoon are expected to be between 1 and 2 inches, with locally
higher amounts possible across central Kentucky. 

 SPOTTER INFORMATION STATEMENT  

Spotters are encouraged to report rainfall amounts.

Latest BOYLE County, Kentucky Watches, Warnings and Advisories.
Additional Drought Info.: UKAWC Drought Page, Kentucky Drought Watch


7-Day Forecast For BOYLE County, KY

TODAY
Mostly sunny. Highs in the upper 70s. South winds 5 to 15 mph with gusts to around 30 mph.

TONIGHT
Partly cloudy with a 50 percent chance of showers. Lows around 60. South winds 5 to 10 mph.

MONDAY
Showers. Highs in the mid 60s. South winds 5 to 10 mph. Chance of showers near 100 percent.

MONDAY NIGHT
Partly cloudy with a 50 percent chance of showers. Lows in the mid 40s. West winds 5 to 10 mph.

TUESDAY
Partly cloudy with a 40 percent chance of showers. Highs in the upper 50s. West winds 10 to 15 mph.

TUESDAY NIGHT
Partly cloudy. Lows in the upper 30s.

WEDNESDAY
Partly cloudy. Highs in the lower 50s.

WEDNESDAY NIGHT
Partly cloudy. Lows in the upper 30s.

THURSDAY
Mostly sunny. Highs in the lower 60s.

THURSDAY NIGHT
Mostly clear. Lows in the upper 40s.

FRIDAY
Partly cloudy with a 30 percent chance of showers. Highs in the mid 60s.

FRIDAY NIGHT
Partly cloudy with a 40 percent chance of showers. Lows in the lower 40s.

SATURDAY
Partly cloudy with a 40 percent chance of showers. Highs in the upper 50s.

Ag Weather Center, Department of Biosystems & Agricultural Engineering, University of Kentucky